Location: Skymont Scout Reservation
(35.4344°N, 85.8742°W)
Time: 21:00:35
(UTC-05:00)

ISS - All Passes

Search period start: 27 June 2017 00:00
Search period end: 07 July 2017 00:00
Orbit: 401 x 408 km, 51.6° (Epoch: 28 June)

Date Brightness Start Highest point End Pass type
(mag) Time Alt. Az. Time Alt. Az. Time Alt. Az.
27 Jun - 07:33:52 10° SW 07:37:06 76° SE 07:40:23 10° NE daylight
27 Jun - 09:12:07 10° WNW 09:13:56 14° NNW 09:15:45 10° N daylight
27 Jun - 14:04:28 10° NNW 14:07:14 24° NNE 14:09:59 10° E daylight
27 Jun - 15:40:48 10° WNW 15:43:43 29° SW 15:46:36 10° SSE daylight
28 Jun - 06:42:01 10° SSW 06:44:59 33° SE 06:47:58 10° ENE daylight
28 Jun - 08:18:53 10° W 08:21:31 22° NNW 08:24:09 10° NNE daylight
28 Jun - 13:12:48 10° N 13:14:49 15° NNE 13:16:50 10° ENE daylight
28 Jun - 14:48:19 10° NW 14:51:36 66° SW 14:54:50 10° SE daylight
29 Jun - 05:50:51 10° SSE 05:52:56 16° SE 05:55:02 10° E daylight
29 Jun - 07:26:05 10° WSW 07:29:10 38° NW 07:32:16 10° NNE daylight
29 Jun - 12:22:00 10° NNE 12:22:18 10° NNE 12:22:38 10° NNE daylight
29 Jun - 13:56:07 10° NW 13:59:22 56° NE 14:02:37 10° ESE daylight
29 Jun - 15:34:30 10° WSW 15:35:28 11° SW 15:36:26 10° SW daylight
30 Jun - 06:33:39 10° SW 06:36:54 81° NW 06:40:11 10° NE daylight
30 Jun - 08:12:28 10° NW 08:13:50 12° NNW 08:15:12 10° N daylight
30 Jun - 13:04:08 10° NNW 13:07:04 29° NE 13:09:59 10° E daylight
30 Jun - 14:40:47 10° WNW 14:43:26 23° SW 14:46:05 10° S daylight
01 Jul - 05:41:36 10° SSW 05:44:42 44° SE 05:47:51 10° ENE daylight
01 Jul - 07:18:58 10° WNW 07:21:20 18° NNW 07:23:44 10° NNE daylight
01 Jul - 12:12:20 10° NNW 12:14:39 18° NNE 12:16:58 10° ENE daylight
01 Jul - 13:48:07 10° WNW 13:51:19 48° SW 13:54:29 10° SSE daylight
02 Jul - 04:50:05 10° S 04:52:36 21° SE 04:55:07 10° E visible
02 Jul - 06:25:58 10° W 06:28:55 31° NW 06:31:53 10° NNE daylight
02 Jul - 11:20:54 10° N 11:22:08 12° NNE 11:23:21 10° NE daylight
02 Jul - 12:55:48 10° NW 12:59:06 74° NE 13:02:22 10° SE daylight
03 Jul - 05:33:22 10° WSW 05:36:35 61° NW 05:39:49 10° NE daylight
03 Jul - 07:12:57 10° NW 07:13:37 10° NNW 07:14:17 10° N daylight
03 Jul - 12:03:42 10° NNW 12:06:47 36° NE 12:09:50 10° ESE daylight
03 Jul - 13:40:45 10° W 13:43:03 18° SW 13:45:19 10° S daylight
04 Jul - 04:41:08 10° SW 04:44:20 59° SE 04:47:33 10° NE visible
04 Jul - 06:18:58 10° WNW 06:21:04 16° NNW 06:23:09 10° NNE daylight
04 Jul - 11:11:47 10° NNW 11:14:21 21° NNE 11:16:55 10° E daylight
04 Jul - 12:47:51 10° WNW 12:50:55 36° SW 12:53:57 10° SSE daylight
05 Jul - 03:49:22 10° S 03:52:08 26° SE 03:54:57 10° ENE visible
05 Jul - 05:25:48 10° W 05:28:34 25° NW 05:31:22 10° NNE daylight
05 Jul - 10:20:08 10° N 10:21:50 13° NNE 10:23:32 10° ENE daylight
05 Jul - 11:55:24 10° NW 11:58:42 83° SW 12:01:58 10° SE daylight
06 Jul - 02:58:28 10° SSE 03:00:02 13° SE 03:01:36 10° E visible
06 Jul - 04:33:01 10° WSW 04:36:10 47° NW 04:39:21 10° NE visible
06 Jul - 11:03:11 10° NW 11:06:22 45° NE 11:09:32 10° ESE daylight
06 Jul - 12:40:46 10° W 12:42:32 14° SW 12:44:16 10° SSW daylight
